DW6513 Weather Reports


time (UTC)temp
F
wind
direction
speed
knots
gust
knots
rain 1hr
in
rain 24hr
in
rain mn
in
humidity
%
barometer
mb
20260505140304 52 210 0.9 6.1 0.00 0.16 0.13 91 1009.3
20260505130303 50 133 1.7 1.7 0.03 0.16 0.13 88 1010.5
20260505124303 51 327 4.3 10.4 0.10 0.16 0.13 88 1010.3
20260505123803 51 303 4.3 10.4 0.10 0.16 0.13 88 1010.3
20260505123303 51 214 4.3 4.3 0.10 0.16 0.13 88 1010.3
20260505122803 51 325 5.2 7.8 0.10 0.16 0.13 88 1010.4
20260505122305 51 31 5.2 10.4 0.10 0.16 0.13 88 1010.4
20260505121802 51 347 5.2 7.0 0.10 0.16 0.13 88 1010.4
20260505121303 52 347 5.2 12.2 0.10 0.16 0.13 87 1010.4
20260505120803 52 33 4.3 7.0 0.06 0.13 0.10 85 1009.9
20260505115803 53 190 2.6 5.2 0.06 0.13 0.10 85 1009.9
20260505115305 53 5 1.7 4.3 0.06 0.13 0.10 82 1009.9
20260505114803 54 145 1.7 6.1 0.00 0.06 0.03 81 1008.6
20260505113803 55 213 2.6 6.1 0.00 0.06 0.03 80 1008.6
20260505113304 55 123 2.6 6.1 0.00 0.06 0.03 80 1008.6
20260505112803 55 10 2.6 6.1 0.00 0.06 0.03 79 1007.7
20260505112305 55 347 2.6 7.8 0.00 0.06 0.03 79 1007.7
20260505110804 56 303 4.3 18.2 0.00 0.06 0.03 81 1008.1
20260505110303 56 13 4.3 5.2 0.00 0.06 0.03 82 1008.1
20260505101304 59 339 4.3 6.1 0.03 0.06 0.03 87 1007.2
20260505100803 60 347 5.2 8.7 0.03 0.06 0.03 87 1006.7
20260505100304 60 324 4.3 5.2 0.03 0.06 0.03 85 1006.7
20260505095803 60 347 4.3 5.2 0.03 0.06 0.03 84 1006.7
20260505095304 61 311 2.6 10.4 0.00 0.03 0.00 83 1006.7
20260505094303 62 349 1.7 7.8 0.00 0.03 0.00 83 1005.7
20260505093803 62 347 0.0 1.7 0.00 0.03 0.00 81 1005.7
20260505093303 62 289 0.0 0.0 0.00 0.03 0.00 80 1005.7
20260505092803 62 303 0.0 0.0 0.00 0.03 0.00 79 1005.7
20260505092305 62 336 0.0 0.0 0.00 0.03 0.00 78 1005.7
20260505091806 62 303 0.0 0.0 0.00 0.03 0.00 77 1005.7
20260505090303 63 262 0.0 0.0 0.00 0.03 0.00 74 1005.4
20260505085803 63 303 0.0 0.0 0.00 0.03 0.00 73 1005.4
20260505084804 63 145 0.0 0.0 0.00 0.03 0.00 72 1005.7
20260505084303 63 155 0.0 0.0 0.00 0.03 0.00 72 1005.7
20260505083303 63 207 0.0 0.0 0.00 0.03 0.00 70 1005.7
20260505082304 64 167 0.0 0.0 0.00 0.03 0.00 65 1005.7
20260505081803 65 303 0.0 0.0 0.00 0.03 0.00 64 1005.7
20260505080804 66 167 0.0 0.0 0.00 0.03 0.00 59 1006.1
20260505080304 67 317 0.0 0.0 0.00 0.03 0.00 56 1006.1
20260505075803 67 257 0.0 0.0 0.00 0.03 0.00 56 1006.1
20260505075304 67 327 0.0 2.6 0.00 0.03 0.00 56 1006.1
20260505074804 67 347 0.0 0.0 0.00 0.03 0.00 56 1006.0
20260505074303 67 303 0.0 0.0 0.00 0.03 0.00 55 1006.0
20260505073804 68 347 0.9 0.0 0.00 0.03 0.00 55 1006.0
20260505073303 68 267 0.9 4.3 0.00 0.03 0.00 56 1006.0
20260505072803 68 257 0.9 4.3 0.00 0.03 0.00 56 1006.5
20260505072305 68 90 0.9 1.7 0.00 0.03 0.00 56 1006.5
20260505071303 69 347 4.3 5.2 0.00 0.03 0.00 57 1006.5
20260505070804 69 347 5.2 11.3 0.00 0.03 0.00 56 1005.4
20260505070303 70 167 5.2 12.2 0.00 0.03 0.00 58 1005.4
20260505065804 70 55 4.3 8.7 0.00 0.03 0.00 59 1005.4
20260505065304 69 347 4.3 8.7 0.00 0.03 0.00 59 1005.4
20260505064803 69 145 4.3 8.7 0.00 0.03 0.00 59 1004.6
20260505064303 69 145 5.2 10.4 0.00 0.03 0.00 59 1004.6
20260505063804 70 145 4.3 5.2 0.00 0.03 0.00 59 1004.6
20260505062804 70 145 4.3 7.8 0.00 0.03 0.00 58 1005.0
20260505062304 70 163 4.3 7.8 0.00 0.03 0.00 58 1005.0
20260505061804 70 145 4.3 6.1 0.00 0.03 0.00 58 1005.0
20260505061304 70 145 5.2 5.2 0.00 0.03 0.00 58 1005.0
20260505060804 70 303 4.3 6.1 0.00 0.03 0.00 58 1004.5
20260505060303 70 137 4.3 7.8 0.00 0.03 0.00 57 1004.5
20260505055804 70 145 4.3 5.2 0.00 0.03 0.00 57 1004.5
20260505054304 71 155 5.2 7.8 0.00 0.03 0.00 56 1004.1
20260505053804 71 145 6.1 7.8 0.00 0.03 0.00 56 1004.1
20260505053304 71 145 7.0 7.0 0.00 0.03 0.00 56 1004.1
20260505052804 71 167 6.1 10.4 0.00 0.03 0.00 56 1003.8
20260505052304 71 166 7.0 8.7 0.00 0.03 0.00 56 1003.8
20260505051803 71 213 7.0 13.0 0.00 0.03 0.00 56 1003.8
20260505051304 71 145 7.0 13.0 0.00 0.03 0.00 56 1003.8
20260505050822 71 145 7.0 10.4 0.00 0.03 0.00 55 1003.9
20260505050304 71 156 6.1 10.4 0.00 0.03 0.00 56 1003.9
20260505040803 72 145 5.2 8.7 0.00 0.03 0.03 54 1003.7
20260505040304 72 179 5.2 8.7 0.00 0.03 0.03 55 1003.7
20260505035803 72 145 5.2 13.0 0.00 0.03 0.03 54 1003.7
20260505034804 72 280 5.2 7.8 0.00 0.03 0.03 54 1003.9
20260505034303 72 145 4.3 7.8 0.00 0.03 0.03 54 1003.9
20260505033803 72 145 4.3 5.2 0.00 0.03 0.03 54 1003.9
20260505033303 73 145 4.3 7.0 0.00 0.03 0.03 54 1003.9
20260505032804 73 145 4.3 7.0 0.00 0.03 0.03 53 1003.9
20260505032304 73 101 4.3 7.0 0.00 0.03 0.03 52 1003.9
20260505031803 73 145 6.1 7.0 0.00 0.03 0.03 52 1003.9
20260505031304 73 145 6.1 10.4 0.00 0.03 0.03 52 1003.9
20260505030304 74 145 4.3 7.0 0.00 0.03 0.03 51 1003.6
20260505025803 74 145 4.3 6.1 0.00 0.03 0.03 51 1003.6
20260505024804 74 145 4.3 4.3 0.00 0.03 0.03 51 1003.0
20260505024304 74 230 4.3 6.1 0.00 0.03 0.03 51 1003.0
20260505023803 74 257 2.6 7.0 0.00 0.03 0.03 51 1003.0
20260505023304 74 141 2.6 5.2 0.00 0.03 0.03 50 1003.0
20260505022803 74 167 4.3 7.0 0.00 0.03 0.03 50 1002.7
20260505012803 75 167 5.2 7.0 0.00 0.03 0.03 49 1003.8
20260505012304 75 145 4.3 10.4 0.00 0.03 0.03 50 1003.8
20260505011805 75 123 3.5 7.8 0.00 0.03 0.03 50 1003.8
20260505010804 75 167 1.7 1.7 0.00 0.03 0.03 50 1003.2
20260505010304 76 178 2.6 5.2 0.00 0.03 0.03 49 1003.2
20260505005804 76 167 5.2 7.0 0.00 0.03 0.03 48 1003.2
20260505005304 76 145 5.2 7.0 0.00 0.03 0.03 48 1003.2
20260505004803 77 145 5.2 7.8 0.00 0.03 0.03 47 1003.2
20260505004304 77 145 4.3 7.8 0.00 0.03 0.03 47 1003.2
20260505003804 77 145 4.3 7.8 0.00 0.03 0.03 47 1003.2
20260505003304 77 160 6.1 7.8 0.00 0.03 0.03 47 1003.2
20260505002803 78 145 6.1 10.4 0.00 0.03 0.03 46 1002.9
20260505002304 78 152 6.1 10.4 0.00 0.03 0.03 46 1002.9
20260505001811 78 145 5.2 8.7 0.00 0.03 0.03 46 1002.9
20260505001304 78 145 5.2 6.1 0.00 0.03 0.03 46 1002.9
20260505000804 79 145 6.1 5.2 0.00 0.03 0.03 46 1003.0
20260505000304 79 145 7.0 11.3 0.00 0.03 0.03 46 1003.0
20260504235804 79 145 6.1 10.4 0.00 0.03 0.03 46 1003.0
20260504235305 79 182 5.2 10.4 0.00 0.03 0.03 46 1003.0
20260504234803 80 145 6.1 7.0 0.00 0.03 0.03 46 1002.7
20260504234304 80 160 7.0 8.7 0.00 0.03 0.03 45 1002.7
20260504233805 80 145 7.0 11.3 0.00 0.03 0.03 45 1002.7
20260504233303 80 123 6.1 11.3 0.00 0.03 0.03 45 1002.7
20260504232803 80 145 7.0 10.4 0.00 0.03 0.03 45 1003.1
20260504232303 80 156 7.0 10.4 0.00 0.03 0.03 45 1003.1
20260504231303 80 145 4.3 7.8 0.00 0.03 0.03 48 1003.1
20260504230803 80 145 4.3 5.2 0.00 0.03 0.03 50 1003.9
20260504230302 80 145 4.3 7.8 0.00 0.03 0.03 51 1003.9
20260504225804 80 145 2.6 7.8 0.00 0.03 0.03 52 1003.9
20260504225304 80 154 0.9 5.2 0.00 0.03 0.03 52 1003.9
20260504224803 82 145 0.0 0.0 0.00 0.03 0.03 52 1004.0
20260504224303 81 167 0.9 0.0 0.00 0.03 0.03 52 1004.0
20260504223803 80 190 0.9 2.6 0.00 0.03 0.03 52 1004.0
20260504223303 81 145 0.9 2.6 0.00 0.03 0.03 51 1004.0
20260504222803 81 145 0.9 4.3 0.00 0.03 0.03 50 1003.8
20260504222304 82 163 0.0 2.6 0.00 0.03 0.03 50 1003.8
20260504221803 83 235 0.9 0.0 0.00 0.03 0.03 50 1003.8
20260504221303 82 213 0.9 0.0 0.00 0.03 0.03 50 1003.8
20260504220803 82 280 0.9 5.2 0.00 0.03 0.03 49 1003.6
20260504220302 82 242 0.9 5.2 0.00 0.03 0.03 48 1003.6
20260504215803 82 33 2.6 5.2 0.00 0.03 0.03 49 1003.6
20260504215304 83 130 1.7 7.8 0.00 0.03 0.03 49 1003.6
20260504214803 84 145 0.9 7.8 0.00 0.03 0.03 48 1003.6
20260504214304 84 145 1.7 2.6 0.00 0.03 0.03 49 1003.6
20260504213804 82 303 4.3 7.0 0.00 0.03 0.03 50 1003.6
20260504213303 82 174 2.6 10.4 0.00 0.03 0.03 50 1003.6
20260504212304 83 130 0.9 4.3 0.00 0.03 0.03 52 1004.3
20260504211803 83 190 0.9 4.3 0.00 0.03 0.03 52 1004.3
20260504211303 82 180 0.9 4.3 0.00 0.03 0.03 52 1004.3
20260504210804 82 303 1.7 1.7 0.00 0.03 0.03 55 1004.3
20260504210303 81 204 2.6 7.0 0.00 0.03 0.03 54 1004.3
20260504205803 79 167 2.6 7.0 0.00 0.03 0.03 56 1004.3
20260504205304 79 190 3.5 7.8 0.00 0.03 0.03 56 1004.3
20260504204803 78 145 2.6 10.4 0.00 0.03 0.03 57 1004.8
20260504204303 79 145 0.9 10.4 0.00 0.03 0.03 56 1004.8
20260504203803 78 33 0.9 1.7 0.00 0.03 0.03 59 1004.8
20260504203303 78 242 0.9 1.7 0.00 0.03 0.03 63 1004.8
20260504202804 76 190 0.9 1.7 0.00 0.03 0.03 65 1004.9
20260504202304 76 157 0.9 7.8 0.00 0.03 0.03 66 1004.9
20260504201803 75 123 0.9 7.8 0.00 0.03 0.03 70 1004.9
20260504201303 73 233 0.9 2.6 0.00 0.03 0.03 70 1004.9
20260504195803 70 303 0.9 2.6 0.00 0.03 0.03 75 1005.4
20260504195304 70 251 1.7 5.2 0.00 0.03 0.03 75 1005.4
20260504194302 73 240 0.9 4.3 0.00 0.03 0.03 78 1005.0
20260504193803 71 303 0.0 1.7 0.00 0.03 0.03 81 1005.0
20260504193303 68 176 0.0 0.0 0.00 0.03 0.03 84 1005.0
20260504192803 65 190 0.9 1.7 0.03 0.03 0.03 85 1006.6
20260504192304 65 149 1.7 5.2 0.03 0.03 0.03 85 1006.6
20260504191803 65 213 0.9 5.2 0.03 0.03 0.03 85 1006.6
20260504191303 64 190 0.0 2.6 0.03 0.03 0.03 85 1006.6
20260504190803 64 123 0.0 0.0 0.03 0.03 0.03 83 1006.3
20260504190303 63 197 0.9 0.0 0.03 0.03 0.03 83 1006.3
20260504185803 63 167 0.9 4.3 0.03 0.03 0.03 83 1006.3
20260504185304 63 132 0.9 4.3 0.03 0.03 0.03 83 1006.3
20260504184303 63 205 1.7 4.3 0.03 0.03 0.03 83 1006.8
20260504183803 63 303 1.7 4.3 0.03 0.03 0.03 84 1006.8
20260504183303 64 75 0.9 5.2 0.03 0.03 0.03 84 1006.8
20260504182304 65 145 0.0 0.0 0.00 0.00 0.00 72 1007.6
20260504181804 65 213 0.0 0.0 0.00 0.00 0.00 71 1007.6
20260504181303 65 213 0.0 1.7 0.00 0.00 0.00 71 1007.6
20260504180803 65 347 0.0 1.7 0.00 0.00 0.00 71 1007.0
20260504180303 65 280 0.0 0.0 0.00 0.00 0.00 71 1007.0
20260504175803 65 347 0.0 1.7 0.00 0.00 0.00 69 1007.0
20260504175304 66 336 0.0 1.7 0.00 0.00 0.00 68 1007.0
20260504174303 65 152 0.0 0.0 0.00 0.00 0.00 68 1007.3
20260504173804 65 167 0.0 0.0 0.00 0.00 0.00 67 1007.3
20260504172803 66 145 0.9 0.0 0.00 0.00 0.00 65 1006.6
20260504172304 66 145 0.9 1.7 0.00 0.00 0.00 65 1006.6
20260504171804 66 123 0.0 2.6 0.00 0.00 0.00 65 1006.6
20260504171303 67 145 0.0 0.0 0.00 0.00 0.00 64 1006.6
20260504170803 67 347 0.0 0.0 0.00 0.00 0.00 64 1007.9
20260504170303 67 142 0.9 0.0 0.00 0.00 0.00 64 1007.9
20260504160303 67 206 0.0 0.0 0.00 0.00 0.00 61 1008.2
20260504150803 69 167 1.7 5.2 0.00 0.00 0.00 57 1008.9
20260504150304 69 181 0.9 5.2 0.00 0.00 0.00 56 1008.9